Stations météo

Publicité
Socoa, France (7600): Température de l'air & dewpoint: 17.04.2017 23:00:00 - 23.04.2017 23:00:00 (CEST)Socoa, France (7600): Vitesse du vent & gusts: 17.04.2017 23:00:00 - 23.04.2017 23:00:00 (CEST)Socoa, France (7600): Direction du vent: 17.04.2017 23:00:00 - 23.04.2017 23:00:00 (CEST)Socoa, France (7600): reduced air pressure: 17.04.2017 23:00:00 - 23.04.2017 23:00:00 (CEST)Socoa, France (7600): visibility: 17.04.2017 23:00:00 - 23.04.2017 23:00:00 (CEST)Socoa, France (7600): Quantités de précipitations: 17.04.2017 23:00:00 - 23.04.2017 23:00:00 (CEST)
Date & Time tt [°C] td [°C] ff [km/h] ff [knt] fx [km/h] fx [knt] dd ppp [hPa] vv [km] rr [mm]
23.04.2017 23:00:00 12,3 8,8 5 3 14 7 W 1018,0 20 0,0
23.04.2017 22:00:00 14,2 10,8 10 5 15 8 W 1017,7 - 0,0
23.04.2017 21:00:00 15,5 10,7 9 5 13 7 W 1017,6 - 0,0
23.04.2017 20:00:00 17,3 10,9 7 4 13 7 W 1017,6 24 0,0
23.04.2017 19:00:00 18,4 10,7 9 5 14 8 W 1017,7 - 0,0
23.04.2017 18:00:00 18,6 10,9 9 5 14 8 W 1017,9 - 0,0
23.04.2017 17:00:00 18,5 10,8 9 5 16 9 NW 1018,2 20 0,0
23.04.2017 16:00:00 18,6 12,3 13 7 16 9 NNW 1018,5 - 0,0
23.04.2017 15:00:00 18,9 12,6 10 5 14 7 NW 1018,9 - 0,0
23.04.2017 14:00:00 18,5 11,8 8 5 12 6 NNW 1019,2 - 0,0
23.04.2017 13:00:00 17,8 10,7 7 4 10 5 N 1019,6 - 0,0
23.04.2017 12:00:00 17,7 9,1 7 4 11 6 NNE 1019,9 - 0,0
23.04.2017 11:00:00 17,9 6,7 6 3 8 5 NNE 1019,9 20 0,0
23.04.2017 10:00:00 16,6 6,1 3 1 7 4 ESE 1019,9 - 0,0
23.04.2017 09:00:00 11,7 6,0 5 3 10 5 E 1020,1 - 0,0
23.04.2017 08:00:00 7,9 3,9 5 3 16 8 S 1020,0 20 0,0
23.04.2017 07:00:00 7,5 3,5 6 3 11 6 S 1019,7 - 0,0
23.04.2017 06:00:00 8,3 3,5 9 5 19 10 SSW 1019,7 - 0,0
23.04.2017 05:00:00 9,0 3,6 17 9 20 11 S 1019,8 - 0,0
23.04.2017 04:00:00 8,6 4,0 8 5 12 6 S 1019,9 - 0,0
23.04.2017 03:00:00 9,3 4,1 8 5 11 6 S 1020,0 - 0,0
23.04.2017 02:00:00 9,9 4,9 4 2 9 5 SSE 1020,3 20 0,0
23.04.2017 01:00:00 10,8 5,1 2 1 9 5 SSE 1020,1 - 0,0
23.04.2017 00:00:00 12,1 4,6 10 6 13 7 SSW 1020,3 - 0,0
22.04.2017 23:00:00 13,5 5,6 6 3 14 8 WNW 1020,3 20 0,0
22.04.2017 22:00:00 15,1 5,9 6 3 22 12 N 1020,2 - 0,0
22.04.2017 21:00:00 15,5 6,8 2 1 17 9 ESE 1019,9 - 0,0
22.04.2017 20:00:00 17,5 7,8 6 3 20 11 NE 1019,5 30 0,0
22.04.2017 19:00:00 19,2 7,9 3 2 16 8 NNE 1019,7 - 0,0
22.04.2017 18:00:00 19,7 7,4 6 3 14 8 NNE 1019,7 - 0,0
22.04.2017 17:00:00 19,8 8,5 6 3 16 9 ENE 1020,1 25 0,0
22.04.2017 16:00:00 20,2 9,1 11 6 25 14 NE 1020,5 - 0,0
22.04.2017 15:00:00 19,3 10,0 16 9 27 15 NNE 1021,2 - 0,0
22.04.2017 14:00:00 19,5 8,5 16 9 29 16 N 1021,7 20 0,0
22.04.2017 13:00:00 19,9 9,5 22 12 28 15 NNE 1022,3 - 0,0
22.04.2017 12:00:00 19,0 8,6 17 9 23 12 NE 1022,9 - 0,0
22.04.2017 11:00:00 20,5 4,9 8 5 27 15 E 1023,1 - 0,0
22.04.2017 10:00:00 19,8 -1,4 16 9 25 14 S 1023,2 - 0,0
22.04.2017 09:00:00 17,8 -1,5 11 6 30 16 S 1023,3 - 0,0
22.04.2017 08:00:00 16,2 -2,4 20 11 37 20 S 1023,2 20 0,0
22.04.2017 07:00:00 14,7 -1,4 12 6 33 18 SSW 1022,9 - 0,0
22.04.2017 06:00:00 15,7 -0,5 11 6 32 18 S 1022,8 - 0,0
22.04.2017 05:00:00 15,4 -0,4 11 6 31 17 S 1023,3 - 0,0
22.04.2017 04:00:00 14,5 1,4 16 9 36 19 SE 1023,4 - 0,0
22.04.2017 03:00:00 15,5 0,9 16 9 33 18 SSE 1023,9 - 0,0
22.04.2017 02:00:00 13,1 2,6 15 8 26 14 SSE 1024,1 25 0,0
22.04.2017 01:00:00 12,8 2,3 14 7 21 11 SSE 1024,1 - 0,0
22.04.2017 00:00:00 14,3 0,9 14 7 23 12 SE 1024,2 - 0,0
21.04.2017 23:00:00 15,0 1,5 18 10 24 13 ESE 1024,4 - 0,0
21.04.2017 22:00:00 16,2 1,9 19 10 23 12 ESE 1024,2 - 0,0
21.04.2017 21:00:00 16,7 1,5 17 9 27 15 E 1023,7 - 0,0
21.04.2017 20:00:00 16,1 9,5 22 12 33 18 NE 1023,6 30 0,0
21.04.2017 19:00:00 16,6 8,3 29 15 41 22 NE 1023,6 - 0,0
21.04.2017 18:00:00 17,7 8,0 29 16 40 22 NE 1023,7 - 0,0
21.04.2017 17:00:00 17,9 8,5 31 17 42 23 NNE 1024,0 - 0,0
21.04.2017 16:00:00 18,3 8,0 32 17 40 22 NNE 1024,7 - 0,0
21.04.2017 15:00:00 19,3 7,4 27 15 35 19 NE 1025,4 - 0,0
21.04.2017 14:00:00 19,5 7,6 31 17 46 25 NE 1026,0 25 0,0
21.04.2017 13:00:00 18,6 7,4 29 15 32 18 NE 1026,5 - 0,0
21.04.2017 12:00:00 17,4 7,4 20 11 27 15 NE 1027,2 - 0,0
21.04.2017 11:00:00 16,8 5,7 14 8 20 11 ENE 1027,1 25 0,0
21.04.2017 10:00:00 14,9 3,4 7 4 26 14 E 1026,9 - 0,0
21.04.2017 09:00:00 12,3 1,9 21 11 27 14 S 1026,9 - 0,0
21.04.2017 08:00:00 5,7 -0,4 14 8 19 11 SE 1026,6 18 0,0
21.04.2017 07:00:00 4,8 -0,2 15 8 18 10 ESE 1026,5 - 0,0
21.04.2017 06:00:00 5,1 -0,9 11 6 23 12 SE 1026,2 - 0,0
21.04.2017 05:00:00 5,9 -1,3 11 6 21 11 SE 1026,5 20 0,0
21.04.2017 04:00:00 6,8 -0,4 9 5 16 9 ESE 1026,5 - 0,0
21.04.2017 03:00:00 6,5 0,6 10 6 16 8 E 1026,7 - 0,0
21.04.2017 02:00:00 7,3 -0,7 11 6 16 9 ESE 1026,6 25 0,0
21.04.2017 01:00:00 10,0 -1,4 11 6 22 12 ESE 1026,8 - 0,0
21.04.2017 00:00:00 10,7 -0,5 16 8 22 12 E 1026,8 - 0,0
20.04.2017 23:00:00 11,3 -1,2 16 9 23 12 ESE 1026,9 - 0,0
20.04.2017 22:00:00 13,2 -2,7 12 6 28 15 ESE 1026,5 - 0,0
20.04.2017 21:00:00 14,4 -3,4 19 11 37 20 E 1025,9 - 0,0
20.04.2017 20:00:00 17,1 -4,8 27 14 45 24 E 1025,4 30 0,0
20.04.2017 19:00:00 18,2 -3,9 27 14 46 25 E 1025,4 - 0,0
20.04.2017 18:00:00 18,6 -4,2 29 15 48 26 ENE 1025,3 - 0,0
20.04.2017 17:00:00 19,0 -3,8 27 15 50 27 E 1025,5 20 0,0
20.04.2017 16:00:00 18,5 -1,4 29 16 48 26 ENE 1026,1 - 0,0
20.04.2017 15:00:00 18,1 0,2 28 15 44 24 ENE 1026,6 - 0,0
20.04.2017 14:00:00 16,8 0,8 23 13 45 24 ENE 1027,1 25 0,0
20.04.2017 13:00:00 16,0 0,9 25 14 41 22 ENE 1027,7 - 0,0
20.04.2017 12:00:00 14,4 1,6 22 12 37 20 ENE 1028,2 - 0,0
20.04.2017 11:00:00 12,5 0,6 22 12 34 19 E 1028,3 20 0,0
20.04.2017 10:00:00 10,1 -1,0 23 13 34 19 ESE 1028,1 - 0,0
20.04.2017 09:00:00 8,2 -1,1 21 11 33 18 ESE 1028,1 - 0,0
20.04.2017 08:00:00 5,8 -1,8 19 10 29 16 ESE 1027,9 20 0,0
20.04.2017 07:00:00 6,6 -1,6 21 11 40 21 ESE 1027,5 - 0,0
20.04.2017 06:00:00 7,0 -1,9 32 18 45 24 E 1027,2 - 0,0
20.04.2017 05:00:00 7,7 -2,1 34 19 42 23 E 1026,7 - 0,0
20.04.2017 04:00:00 8,3 -2,1 30 16 44 24 E 1026,6 - 0,0
20.04.2017 03:00:00 8,9 -2,4 23 12 36 19 E 1026,8 - 0,0
20.04.2017 02:00:00 9,8 -2,5 23 12 33 18 E 1026,9 20 0,0
20.04.2017 01:00:00 10,8 -1,9 24 13 39 21 E 1026,6 - 0,0
20.04.2017 00:00:00 11,2 -1,9 20 11 29 16 E 1026,4 - 0,0
19.04.2017 23:00:00 12,2 -2,5 24 13 33 18 E 1026,0 25 0,0
19.04.2017 22:00:00 12,7 -2,4 25 13 33 18 E 1025,1 - 0,0
19.04.2017 21:00:00 14,4 -3,9 24 13 45 24 E 1024,4 - 0,0
19.04.2017 20:00:00 16,2 -6,2 32 18 54 29 E 1024,0 - 0,0
19.04.2017 19:00:00 17,2 -4,7 27 14 55 30 E 1023,9 - 0,0
19.04.2017 18:00:00 17,9 -4,8 29 16 55 30 E 1023,7 - 0,0
19.04.2017 17:00:00 18,3 -2,6 26 14 54 29 ENE 1024,1 - 0,0
19.04.2017 16:00:00 17,9 0,1 29 16 50 27 ENE 1024,6 - 0,0
19.04.2017 15:00:00 17,1 1,5 29 16 50 27 ENE 1025,3 - 0,0
19.04.2017 14:00:00 17,0 0,6 21 11 41 22 ENE 1025,6 20 0,0
19.04.2017 13:00:00 15,5 1,6 25 13 35 19 NE 1026,2 - 0,0
19.04.2017 12:00:00 15,0 2,2 17 9 38 21 ENE 1026,5 - 0,0
19.04.2017 11:00:00 12,7 1,1 22 12 39 21 E 1026,5 25 0,0
19.04.2017 10:00:00 10,5 0,8 19 11 39 21 E 1026,5 - 0,0
19.04.2017 09:00:00 8,2 0,2 18 10 34 19 E 1026,4 - 0,0
19.04.2017 08:00:00 6,4 -0,8 14 8 26 14 E 1026,2 20 0,0
19.04.2017 07:00:00 6,8 -1,1 17 9 26 14 E 1025,8 - 0,0
19.04.2017 06:00:00 7,2 -1,2 11 6 27 14 E 1025,5 - 0,0
19.04.2017 05:00:00 8,1 -1,4 16 9 31 17 E 1025,2 - 0,0
19.04.2017 04:00:00 8,9 -1,5 18 10 29 15 E 1025,1 - 0,0
19.04.2017 03:00:00 9,6 -1,2 22 12 31 17 E 1025,3 - 0,0
19.04.2017 02:00:00 10,7 -0,8 14 8 33 18 E 1025,4 - 0,0
19.04.2017 01:00:00 12,2 -0,7 26 14 36 20 E 1024,9 - 0,0
19.04.2017 00:00:00 13,2 1,5 24 13 44 24 ENE 1024,4 - 0,0
18.04.2017 23:00:00 14,2 2,7 27 14 45 25 ENE 1023,8 25 0,0
18.04.2017 22:00:00 13,7 6,1 14 8 40 22 ENE 1022,8 - 0,0
18.04.2017 21:00:00 15,3 9,4 35 19 50 27 NNE 1021,8 - 0,0
18.04.2017 20:00:00 15,6 8,8 42 23 53 28 N 1021,3 25 0,0
18.04.2017 19:00:00 15,9 7,6 33 18 45 25 N 1021,7 - 0,0
18.04.2017 18:00:00 16,0 8,0 29 16 43 23 N 1022,0 - 0,0
18.04.2017 17:00:00 16,0 8,0 32 17 44 24 N 1022,1 20 0,0
18.04.2017 16:00:00 16,0 8,7 30 16 41 22 N 1022,6 - 0,0
18.04.2017 15:00:00 16,4 10,3 24 13 38 20 N 1022,7 - 0,0
18.04.2017 14:00:00 16,8 10,4 14 8 22 12 NNW 1023,0 18 0,0
18.04.2017 13:00:00 16,9 11,2 12 7 17 9 NNW 1023,4 - 0,0
18.04.2017 12:00:00 16,4 10,0 11 6 16 9 N 1023,6 - 0,0
18.04.2017 11:00:00 15,8 9,9 4 2 12 6 N 1023,3 18 0,0
18.04.2017 10:00:00 15,6 9,0 6 4 11 6 NNE 1022,9 - 0,0
18.04.2017 09:00:00 13,8 11,1 5 3 10 6 ENE 1022,7 - 0,0
18.04.2017 08:00:00 11,9 10,5 3 2 8 5 S 1022,2 18 0,0
18.04.2017 07:00:00 12,3 10,4 2 1 11 6 E 1021,8 - 0,0
18.04.2017 06:00:00 12,4 10,3 8 4 13 7 WSW 1021,7 - 0,0
18.04.2017 05:00:00 12,3 10,4 11 6 16 9 WSW 1021,7 - 0,0
18.04.2017 04:00:00 12,1 10,2 12 7 19 10 WSW 1021,8 - 0,0
18.04.2017 03:00:00 11,3 9,7 13 7 20 11 WSW 1022,1 - 0,0
18.04.2017 02:00:00 10,7 9,6 15 8 19 10 WSW 1022,6 - 0,0
18.04.2017 01:00:00 10,1 8,9 11 6 14 7 WSW 1022,6 - 0,0
18.04.2017 00:00:00 10,4 8,7 10 5 12 7 SW 1022,9 - 0,0
17.04.2017 23:00:00 11,5 9,2 6 3 9 5 SW 1022,8 20 0,0

tt = Température de l'air
td = dewpoint
ff = Vitesse du vent
fx = gusts
dd = Direction du vent
ppp = reduced air pressure
vv = visibility
rr = Quantités de précipitations

stations d'obs. à proximité